Location: Sungai Jaoh
(2.9167°N, 113.9167°E)
Time: 11:07:04
(UTC+00:00)

Envisat - Pass Details

Date: 02 October 2021
Orbit: 764 x 766 km, 98.2° (Epoch: 20 October)

Event Time Altitude Azimuth Distance (km) Brightness Sun altitude
Rises 21:29:37 0° 2° (N) 3,213 6.2 -11.1°
Reaches altitude 10° 21:31:58 10° 357° (N) 2,289 5.4 -10.5°
Maximum altitude 21:36:50 50° 282° (WNW) 965 3.2 -9.3°
Drops below altitude 10° 21:41:44 10° 207° (SSW) 2,297 5.2 -8.1°
Sets 21:44:06 0° 202° (SSW) 3,225 6.0 -7.5°
